Altus, OK

1:40 PM CDT on September 25, 2016 (GMT -0500)
Altus Air Force Base

Weather History for KLTS - March, 2014

Change the Weather History Date:

Wednesday, March 19, 2014

  Actual Average Record
Temperature  
Mean Temperature 49 °F -  
Max Temperature 61 °F 63 °F 87 °F (2004)
Min Temperature 37 °F 40 °F 30 °F (2016)
Degree Days  
Heating Degree Days 16    
Moisture  
Dew Point 27 °F    
Average Humidity 47    
Maximum Humidity 71    
Minimum Humidity 24    
Precipitation  
Precipitation 0.01 in - - ()
Sea Level Pressure  
Sea Level Pressure 30.18 in    
Wind  
Wind Speed 15 mph (North)    
Max Wind Speed 30 mph    
Max Gust Speed 39 mph    
Visibility 10 miles    
Events      
Averages and records for this station are not official NWS values.
T = Trace of Precipitation, MM = Missing Value Source: NWS Daily Summary

Daily Weather History Graph

Daily Weather History Graph

Search for Another Location

Airport or City:

Trip Planner

Search our weather history database for the weather conditions in past years. The results will help you decide how hot, cold, wet, or windy it might be!

Date:

Astronomy

Mar. 19, 2014 Rise Set
Actual Time 7:42 AM CDT 7:48 PM CDT
Civil Twilight 7:16 AM CDT 8:13 PM CDT
Nautical Twilight 6:47 AM CDT 8:42 PM CDT
Astronomical Twilight 6:18 AM CDT 9:12 PM CDT
Moon 10:59 PM CDT (3/19) 9:16 AM CDT (3/19)
Length of Visible Light 12h 56m
Length of Day
12h 05m
Waning Gibbous, 91% of the Moon is Illuminated
Mar 19
Waning Gibbous
Mar 23
Last Quarter
Mar 30
New
Apr 7
First Quarter
Apr 15
Full

Hourly Weather History & Observations

Time (CDT) Temp. Windchill Dew Point Humidity Pressure Visibility Wind Dir Wind Speed Gust Speed Precip Events Conditions
12:58 AM 44.6 °F 34.7 °F 26.6 °F 49% 29.96 in 10.0 mi North 29.9 mph 36.8 mph N/A   Clear
1:58 AM 44.1 °F 34.4 °F 26.6 °F 50% 29.99 in 10.0 mi North 27.6 mph 39.1 mph N/A   Clear
2:58 AM 43.2 °F 35.0 °F 27.9 °F 55% 30.05 in 10.0 mi North 18.4 mph 27.6 mph N/A   Clear
3:58 AM 41.7 °F 34.8 °F 27.7 °F 58% 30.07 in 10.0 mi NW 12.7 mph - N/A   Clear
4:58 AM 40.3 °F 34.9 °F 28.2 °F 62% 30.09 in 10.0 mi WNW 8.1 mph - N/A   Clear
5:58 AM 38.8 °F 32.6 °F 28.2 °F 66% 30.12 in 10.0 mi NW 9.2 mph - N/A   Clear
6:58 AM 38.5 °F 33.4 °F 28.6 °F 68% 30.17 in 10.0 mi WNW 6.9 mph - N/A   Clear
7:58 AM 37.0 °F 31.0 °F 28.4 °F 71% 30.20 in 10.0 mi WNW 8.1 mph - N/A   Clear
8:58 AM 39.7 °F 33.7 °F 29.3 °F 66% 30.25 in 10.0 mi WNW 9.2 mph - N/A   Clear
9:58 AM 45.7 °F 39.1 °F 31.1 °F 57% 30.26 in 10.0 mi North 15.0 mph - N/A   Clear
10:58 AM 49.8 °F - 30.0 °F 47% 30.29 in 10.0 mi NNE 13.8 mph - N/A   Clear
11:58 AM 52.5 °F - 27.9 °F 39% 30.29 in 10.0 mi NNE 11.5 mph - N/A   Clear
12:13 PM 53.6 °F - 28.4 °F 38% 30.27 in 10.0 mi NNE 12.7 mph 18.4 mph N/A   Clear
12:58 PM 55.0 °F - 25.0 °F 31% 30.26 in 10.0 mi North 12.7 mph - N/A   Clear
1:50 PM 57.2 °F - 24.8 °F 29% 30.24 in 10.0 mi NNE 12.7 mph - N/A   Clear
1:58 PM 57.7 °F - 23.9 °F 27% 30.23 in 10.0 mi NNE 13.8 mph - N/A   Clear
2:58 PM 59.5 °F - 23.7 °F 25% 30.21 in 10.0 mi North 11.5 mph 18.4 mph N/A   Clear
3:58 PM 60.3 °F - 24.3 °F 25% 30.18 in 10.0 mi NNW 11.5 mph 19.6 mph N/A   Clear
4:58 PM 60.6 °F - 23.4 °F 24% 30.17 in 10.0 mi NNE 4.6 mph - N/A   Clear
5:58 PM 61.5 °F - 24.8 °F 25% 30.17 in 10.0 mi NNE 8.1 mph - N/A   Clear
6:58 PM 59.4 °F - 25.0 °F 27% 30.18 in 10.0 mi East 4.6 mph - N/A   Clear
7:58 PM 52.0 °F - 28.8 °F 41% 30.20 in 10.0 mi East 5.8 mph - N/A   Clear
8:58 PM 46.9 °F - 28.0 °F 48% 30.21 in 10.0 mi ESE 5.8 mph - N/A   Clear
9:58 PM 42.8 °F 38.0 °F 28.2 °F 56% 30.21 in 10.0 mi SE 8.1 mph - N/A   Clear
10:58 PM 40.1 °F 36.9 °F 27.1 °F 60% 30.22 in 10.0 mi SSE 4.6 mph - N/A   Clear
11:58 PM 37.9 °F 33.5 °F 27.5 °F 66% 30.21 in 10.0 mi SSE 5.8 mph - N/A   Clear